Wind_Speed
32 29 26 25 23 22 20 19 17 16 14 12 12 11 11 11 12 14 15 16 16 17 18 18 18 19 18 18 19 18 19 20 19 19 19 21 21 22 23 23 24 25 25 25 25 27 29 30 30 29 29 30 32 31 31 31 32 32 33 33 33 33 34 28 18 17 28 36 35 36 38 36 37 42 42 41 40 39 38 38 36 34 32 34 38
32 29 26 25 23 22 20 18 16 14 12 11 10 10 10 11 12 14 15 15 16 17 18 19 20 20 19 20 19 18 19 20 19 19 20 21 22 22 22 22 24 25 25 25 26 28 28 29 29 28 27 29 31 31 31 31 32 33 33 32 33 34 33 31 24 16 21 30 33 35 38 36 37 41 41 41 43 41 38 35 30 29 31 31 33
31 28 26 25 23 21 19 17 15 13 11 10 10 9 10 11 12 13 14 15 16 17 19 19 21 20 19 19 19 18 19 19 19 19 20 22 23 23 23 23 24 25 25 27 29 28 28 28 29 28 27 28 30 30 31 32 32 34 35 33 33 34 33 33 29 20 17 24 29 32 33 33 35 37 38 43 45 39 34 32 29 27 30 30 32
31 28 26 24 22 20 18 16 14 12 11 10 9 9 10 11 12 13 14 15 16 18 19 20 20 19 18 18 19 19 19 19 19 20 20 22 23 24 24 24 25 25 26 29 30 29 28 29 29 28 28 28 29 29 30 31 32 32 33 33 33 33 33 33 33 29 23 20 25 33 34 32 34 36 37 41 41 34 29 29 29 28 30 32 33
30 28 26 23 21 19 18 16 14 12 11 10 9 10 10 10 11 13 14 14 16 18 19 20 19 18 18 18 19 20 20 20 20 21 21 22 23 25 25 25 25 26 27 29 29 29 29 30 30 29 29 29 29 29 29 30 31 32 32 32 32 32 32 32 33 34 30 22 24 33 35 33 34 35 38 39 33 29 27 28 29 29 30 33 33
29 27 25 23 21 19 18 16 14 13 11 10 9 9 9 10 11 12 13 15 16 18 19 19 19 19 19 19 20 21 21 20 20 21 21 23 24 24 25 25 27 29 30 29 29 29 30 31 31 31 31 31 31 30 30 31 32 33 33 33 34 34 34 34 33 34 33 29 27 29 30 31 31 33 39 38 29 25 26 25 27 28 29 31 33
29 27 25 23 21 20 19 17 15 13 11 10 9 9 9 10 11 12 13 15 16 17 18 19 19 19 19 20 20 21 21 21 21 21 22 23 23 24 26 28 29 30 31 31 31 32 33 34 34 33 33 33 33 33 33 33 32 32 33 32 32 32 32 32 31 30 30 28 26 28 28 28 29 32 37 34 26 26 26 21 20 24 26 27 29
29 27 25 24 22 21 19 17 15 12 11 9 8 8 8 10 11 12 13 15 16 16 17 19 19 19 19 20 20 20 20 21 21 21 22 22 24 26 27 28 30 30 31 32 32 33 34 35 36 36 36 35 35 35 35 35 33 32 32 31 31 31 29 28 28 27 27 25 24 27 28 26 28 31 30 26 21 21 22 19 16 19 23 24 27
30 28 26 24 22 21 19 17 14 12 11 9 8 8 8 10 10 12 13 14 15 16 17 18 18 18 18 19 19 20 20 21 21 20 22 23 25 26 26 26 28 30 32 33 33 34 35 36 37 37 38 39 39 38 38 38 36 33 32 31 31 31 30 28 27 26 25 20 18 20 20 20 24 24 19 18 18 17 19 19 17 18 22 24 28
30 28 26 24 22 21 18 16 14 12 11 9 8 8 8 9 10 11 12 13 15 17 17 17 17 17 17 18 19 19 19 21 22 22 24 26 27 29 28 28 28 29 32 34 35 35 35 36 38 38 39 41 41 40 41 42 42 41 39 36 35 34 31 28 27 27 23 16 14 15 12 12 19 21 18 19 20 20 20 18 16 17 17 16 23
30 28 26 24 23 21 18 16 14 12 11 9 8 8 8 8 9 10 11 14 15 16 16 17 16 16 17 18 19 20 21 24 25 25 26 28 29 30 32 31 30 30 32 33 34 34 34 35 37 37 38 39 40 40 42 42 43 44 45 44 42 41 37 32 29 29 26 19 18 17 11 10 19 23 21 20 20 19 19 19 16 14 10 8 12
30 28 26 24 23 21 18 17 15 12 11 9 8 7 7 7 7 9 11 13 14 15 16 17 17 17 17 18 19 20 23 27 27 26 28 30 30 31 32 32 31 31 33 33 34 35 35 35 35 35 35 35 36 38 40 41 41 42 44 46 46 46 45 42 37 33 29 23 20 19 16 15 21 23 21 19 19 19 18 18 16 13 11 8 8
31 28 26 25 24 21 19 17 14 12 10 8 7 6 6 5 6 9 11 13 14 15 17 17 18 18 17 18 20 22 25 28 27 27 30 31 31 32 32 31 31 33 33 34 35 35 35 36 36 34 34 34 34 36 37 38 39 39 41 44 45 45 46 47 46 42 38 32 26 25 25 23 23 24 20 17 18 18 15 14 15 16 14 11 11
30 29 27 26 24 21 19 17 14 12 10 8 7 6 4 4 6 8 10 12 13 15 17 18 18 19 19 20 22 24 27 29 28 29 31 31 32 33 31 30 31 33 33 34 35 35 36 36 36 36 35 34 34 34 36 37 37 37 38 38 39 41 41 43 45 44 42 39 35 34 33 30 29 29 26 21 20 19 16 15 16 18 19 20 25
30 29 28 26 24 21 19 17 15 12 10 9 7 4 2 3 6 8 10 12 13 14 16 17 19 20 20 21 23 25 28 29 28 29 30 32 33 33 30 29 30 31 32 34 35 36 36 36 36 36 36 35 34 34 35 36 36 36 36 32 32 35 36 37 38 38 38 37 37 38 37 36 35 33 31 29 27 23 21 21 21 22 24 26 28
29 28 28 26 24 22 19 17 15 13 11 9 5 2 1 3 5 7 9 12 13 14 16 17 20 20 20 22 25 29 29 27 26 28 30 31 33 31 29 29 30 31 33 34 35 37 37 36 36 37 36 36 36 36 38 38 37 37 36 32 29 32 35 36 35 36 37 36 35 36 37 37 37 35 34 34 32 28 24 24 24 22 20 16 14
30 29 28 27 25 22 20 18 16 14 11 8 4 2 1 3 5 6 9 12 13 15 16 17 18 18 20 23 27 29 29 26 25 28 29 31 32 31 29 29 29 31 33 34 35 36 37 37 37 38 38 38 38 38 39 39 39 37 34 30 27 27 31 33 33 34 37 38 39 39 39 40 39 37 37 35 33 30 24 19 19 16 12 9 8
31 30 29 27 24 22 20 18 16 14 11 7 4 2 1 3 5 7 9 12 13 15 16 16 16 18 22 26 26 26 26 25 25 27 28 30 32 30 29 30 30 30 33 35 35 36 37 38 38 39 40 40 40 41 41 40 39 36 34 30 26 24 26 29 30 31 31 32 36 37 37 40 39 38 40 37 34 32 26 19 18 15 9 8 8
33 31 29 27 24 22 20 18 16 13 9 7 5 2 1 3 5 7 9 11 13 14 14 14 16 19 23 24 23 23 24 24 24 26 28 31 31 29 28 30 30 30 31 34 35 36 37 37 37 38 39 40 41 42 42 40 38 37 37 32 25 24 28 29 28 28 27 26 29 29 29 32 34 35 37 37 34 34 31 26 26 23 14 8 8
33 31 28 26 24 21 19 17 14 11 9 7 5 2 1 3 6 8 9 10 12 13 13 14 16 18 19 20 20 20 21 23 25 26 29 31 32 30 29 29 30 30 31 33 35 37 37 36 35 35 37 39 41 41 42 41 38 39 38 31 23 25 30 29 26 26 27 26 26 27 25 26 27 30 33 35 34 34 34 31 31 30 23 15 12
32 30 28 26 23 21 18 16 13 10 8 7 4 2 2 3 6 7 9 10 11 13 14 14 15 16 16 18 18 18 19 23 25 27 28 31 32 32 31 30 31 32 33 34 35 36 36 35 35 36 37 40 41 42 42 42 40 38 38 33 29 30 33 28 24 24 27 27 25 25 25 24 23 25 29 33 34 32 31 31 31 31 29 24 18
32 30 28 25 23 20 18 15 13 10 8 6 4 2 2 4 5 6 8 10 11 13 13 12 13 16 17 16 16 17 19 21 24 27 29 31 33 34 32 32 33 33 34 35 34 34 35 36 36 38 41 43 44 44 43 43 42 39 38 38 37 36 35 30 24 22 23 25 23 22 23 23 23 23 25 29 32 31 30 32 32 31 31 32 29
33 30 28 25 22 20 17 15 12 10 8 6 4 2 2 4 5 6 8 8 9 10 10 11 13 15 15 15 15 17 19 20 23 26 29 31 33 34 33 34 35 34 33 34 34 34 34 36 39 43 46 46 46 45 44 44 42 39 38 39 39 38 35 30 25 22 22 24 23 22 21 22 22 23 23 25 29 30 31 32 32 31 32 33 35
32 30 28 25 22 20 17 15 12 10 9 6 4 3 2 3 4 6 7 6 6 7 9 11 13 14 15 16 17 18 19 21 23 26 29 31 33 34 34 36 36 35 34 33 33 33 35 38 43 46 47 46 45 44 43 41 40 40 40 39 38 37 32 28 26 23 22 22 22 22 22 22 21 22 23 24 26 28 30 31 31 31 33 33 33
32 30 28 25 23 21 18 15 13 10 9 7 5 4 2 3 5 6 6 4 4 7 9 11 12 13 15 17 18 20 20 22 23 25 28 31 33 33 34 36 37 37 35 33 32 33 36 40 43 43 43 42 43 41 36 31 32 35 37 38 37 35 29 25 24 22 19 20 21 21 22 23 22 23 23 23 24 26 27 28 29 31 31 32 33
33 31 28 25 23 21 18 16 13 11 9 7 6 4 3 4 5 5 4 3 4 7 9 10 11 13 15 17 18 20 21 22 23 25 28 30 32 33 34 35 35 36 34 32 33 34 35 37 38 38 39 38 38 36 29 22 24 28 30 32 33 31 26 23 21 18 17 19 21 22 23 22 21 22 23 23 24 26 26 24 25 27 27 27 28
34 31 28 26 24 21 19 17 15 13 10 8 7 6 4 4 4 3 2 3 5 7 9 10 11 13 15 16 17 19 20 22 23 26 30 32 33 33 34 33 33 33 32 32 34 33 32 33 34 34 34 33 32 33 30 22 19 22 23 24 24 23 22 22 22 20 18 17 18 21 22 21 20 21 22 21 22 24 24 23 22 23 25 25 22
35 32 29 27 25 21 19 18 15 14 12 9 8 6 5 4 3 2 1 3 6 8 10 12 12 13 15 17 18 18 19 20 23 28 32 34 34 35 34 33 32 32 32 34 35 32 30 30 30 30 30 30 29 30 30 28 24 20 16 15 16 18 21 22 22 21 19 18 19 21 22 22 22 22 21 21 21 21 22 24 23 22 24 23 16
34 31 29 27 24 22 20 18 16 14 12 10 9 6 5 4 3 2 1 4 7 10 11 11 12 14 16 17 17 18 19 22 26 31 33 33 34 34 34 34 33 32 33 35 32 28 27 26 26 27 27 27 26 26 26 27 27 26 23 19 16 16 18 20 19 19 19 20 21 22 22 22 22 22 21 21 21 21 22 23 23 23 23 20 12
33 30 29 27 25 23 21 18 16 14 12 11 9 7 6 5 4 2 3 5 7 8 9 10 12 14 14 15 16 17 20 25 29 32 32 32 33 33 33 33 33 33 34 34 28 24 24 23 24 25 26 25 23 23 24 24 24 24 24 23 21 20 18 16 17 19 19 20 21 20 20 20 21 21 20 19 18 19 20 22 23 23 21 16 9
34 30 29 27 25 23 21 18 17 14 12 10 9 8 7 5 5 3 3 6 6 6 8 9 12 14 14 15 16 17 20 24 28 30 31 31 31 32 32 32 32 33 34 30 24 22 23 22 22 24 25 24 23 23 23 23 22 22 23 22 21 21 20 19 17 16 18 20 20 19 19 20 20 20 19 18 17 17 18 20 23 23 20 17 10
36 32 30 28 25 23 21 19 17 15 13 10 8 7 7 6 4 3 2 5 6 6 9 11 13 14 15 16 18 19 21 25 27 28 29 30 30 31 32 30 31 34 34 29 23 23 24 22 22 23 24 23 24 25 24 24 23 22 22 21 21 21 20 22 24 23 19 17 19 18 17 19 20 19 18 18 16 15 16 18 20 20 19 17 14
39 36 33 29 27 24 22 20 18 16 14 12 9 7 6 7 6 5 6 7 6 6 8 11 13 14 15 17 20 21 23 26 27 28 29 30 30 31 31 28 27 30 30 25 22 22 23 22 23 24 24 23 25 26 26 25 24 24 22 20 21 22 23 24 24 23 21 18 18 19 18 18 18 17 17 18 17 15 16 17 18 18 15 12 12
39 37 35 32 30 27 24 22 20 18 16 13 10 9 6 5 4 6 9 10 8 8 9 12 14 15 16 18 21 23 25 26 27 27 27 29 30 30 30 29 30 32 31 25 21 22 23 22 23 25 25 25 25 26 27 25 25 25 25 24 23 23 25 25 22 20 20 21 19 17 18 18 18 16 16 16 15 15 16 16 15 13 10 8 8
36 35 33 32 30 28 25 23 21 19 17 14 12 9 7 5 4 3 3 5 8 11 13 15 15 15 16 19 21 23 25 26 26 26 26 28 30 31 31 31 31 33 33 29 24 23 23 22 23 25 26 26 26 26 26 26 26 25 25 25 25 25 25 23 21 21 21 21 21 19 17 18 18 17 16 15 13 12 12 13 14 13 11 9 8
36 34 31 30 29 28 26 23 21 19 17 15 12 10 8 7 5 3 1 2 4 8 12 16 16 15 16 17 20 22 24 25 25 25 25 26 28 28 26 24 23 24 27 27 25 24 24 23 24 26 27 26 26 27 27 26 26 25 25 25 24 23 23 22 21 22 22 20 20 22 21 19 19 19 18 15 15 14 12 12 15 16 14 13 11
37 35 32 30 29 27 25 23 21 19 17 15 12 10 9 7 6 4 2 1 3 5 8 13 16 16 16 18 21 23 24 25 25 24 26 29 31 28 22 17 18 19 21 24 24 24 24 26 26 26 27 27 27 27 28 28 27 25 25 26 23 21 22 23 21 21 21 20 20 22 23 23 21 20 19 14 13 15 14 13 15 16 17 17 15
37 36 34 31 30 28 26 24 22 19 17 15 12 11 9 8 6 4 2 2 4 5 8 11 13 13 15 18 21 22 23 25 27 29 31 33 33 30 23 18 17 17 19 24 26 24 24 27 28 27 27 28 28 27 27 29 29 26 25 25 24 23 24 23 22 21 20 20 21 21 21 23 22 19 19 16 12 12 13 13 14 14 14 14 13
34 33 32 30 29 28 26 25 22 19 17 15 12 11 10 8 6 5 3 4 5 7 9 11 12 12 13 17 20 21 22 24 25 27 30 32 31 29 26 23 21 20 20 24 27 27 26 30 31 28 28 31 30 28 29 31 31 30 28 26 24 25 25 23 22 23 22 21 21 22 21 21 23 20 16 16 14 12 12 13 15 14 11 10 12
35 33 30 29 28 26 25 24 22 20 18 15 13 11 9 7 6 5 5 5 6 7 9 10 12 13 13 15 18 18 19 21 22 23 26 29 31 32 29 26 27 28 26 26 29 29 31 35 35 30 29 32 33 31 30 32 32 32 31 27 24 24 25 23 21 21 21 21 21 21 20 20 21 20 16 12 14 14 13 13 15 16 15 15 17
36 33 29 29 29 26 24 23 21 19 17 15 13 11 10 8 6 5 6 6 5 7 8 9 11 13 13 13 14 15 15 18 20 22 25 26 29 32 32 30 31 33 34 33 32 32 34 39 40 34 32 36 40 36 32 32 34 34 32 29 26 25 25 25 22 20 20 20 20 20 20 19 18 18 16 13 12 15 15 14 14 16 17 18 20
37 34 31 30 30 28 26 24 21 19 17 15 13 11 10 8 7 6 6 5 5 6 8 9 11 13 13 13 13 14 16 19 21 23 26 27 28 30 32 33 33 34 35 35 34 33 35 38 40 38 37 41 46 42 35 33 35 35 33 32 29 26 26 27 25 22 21 21 21 20 21 20 18 18 18 17 11 12 15 13 14 16 15 15 18
37 35 33 32 30 27 26 24 22 19 17 15 14 12 10 8 7 6 5 5 5 6 7 10 12 13 13 14 14 15 18 20 22 23 25 27 28 30 31 33 34 34 36 36 35 34 36 37 39 40 42 44 47 46 39 32 32 36 38 37 32 28 28 30 28 25 24 25 25 24 23 22 19 18 18 19 14 9 13 13 13 15 14 13 16
37 35 34 32 29 26 25 23 21 19 17 15 14 12 10 8 7 6 5 5 5 6 7 9 11 12 13 15 15 17 19 20 22 23 24 26 28 29 31 32 34 34 35 37 36 37 39 39 40 43 46 47 49 49 42 34 33 39 42 38 34 33 34 34 33 32 31 29 28 27 25 23 21 18 17 18 16 8 9 12 12 13 13 12 13
38 36 34 32 29 26 25 23 21 19 18 16 14 13 10 9 7 6 6 6 5 5 6 8 10 11 13 15 16 17 19 20 21 22 23 25 27 29 30 32 33 34 34 36 38 39 40 41 41 44 47 48 50 51 45 36 35 40 40 36 34 36 38 39 38 36 34 32 29 27 26 24 22 19 17 17 16 11 6 9 10 11 12 11 11
38 37 35 33 30 28 25 23 21 19 18 16 15 13 11 9 7 6 6 6 5 5 6 7 9 10 12 14 15 16 18 19 20 21 22 23 25 27 29 31 32 33 34 35 37 38 40 41 42 44 47 48 50 52 48 39 35 39 41 38 37 40 42 42 40 37 35 34 33 30 27 24 22 20 19 18 17 13 7 8 9 10 12 11 11
37 36 34 32 31 28 26 24 22 19 18 16 15 13 12 10 8 7 6 5 5 5 5 7 9 10 11 13 15 16 17 18 19 20 22 23 24 26 28 30 32 33 34 35 37 38 39 41 41 43 47 48 48 51 50 42 35 36 40 40 41 45 46 45 42 39 36 36 35 33 29 25 22 20 20 19 18 12 8 10 10 11 13 13 12
36 35 33 31 30 29 27 25 22 20 18 17 15 13 12 11 9 7 6 5 4 5 5 6 8 10 11 12 14 15 16 18 18 19 20 22 23 25 27 28 31 33 34 35 37 37 38 40 41 42 45 47 48 51 51 42 34 35 40 42 45 50 49 46 44 42 39 36 37 36 31 26 23 21 20 20 21 15 6 11 13 13 14 13 14
36 35 32 31 30 28 27 25 23 21 19 17 16 14 13 11 9 8 6 5 4 4 5 6 8 9 10 11 13 14 15 17 18 19 20 20 22 24 26 27 29 31 33 35 36 37 38 39 40 41 44 46 47 50 50 41 34 36 43 46 49 51 50 47 47 46 41 38 38 39 35 30 27 25 23 23 26 22 11 3 10 14 15 13 13
35 34 32 30 28 27 25 24 22 20 18 17 15 14 13 11 10 8 6 5 5 4 5 6 7 8 10 11 12 14 15 16 17 18 19 20 21 23 25 26 28 29 31 33 35 36 37 38 39 41 43 44 46 48 47 41 37 38 43 46 50 53 52 49 49 49 46 41 40 42 42 39 35 31 30 29 29 26 20 13 3 8 14 14 13
34 32 30 29 27 26 24 23 22 20 18 17 15 14 13 11 10 8 7 6 5 4 4 5 6 7 8 10 11 13 14 15 16 17 18 19 20 21 23 25 27 29 30 32 34 35 37 38 40 40 41 43 45 46 44 41 40 40 41 42 47 53 53 50 47 49 48 44 42 44 46 44 39 36 34 31 28 26 24 22 16 6 5 11 15
Wind_Direction
195 198 202 206 209 210 214 218 221 227 232 239 248 259 271 277 284 289 293 297 299 304 311 312 312 311 308 305 300 293 286 283 282 279 276 276 277 277 276 276 274 273 274 273 273 275 274 271 269 268 267 265 263 263 262 260 258 256 255 255 255 256 255 256 261 267 269 267 266 268 268 265 265 265 267 270 268 263 263 265 268 270 272 274 273
194 198 201 204 207 209 212 216 219 224 230 239 250 263 274 281 287 292 296 300 303 309 314 314 316 314 310 306 300 290 284 283 283 280 278 278 279 278 278 277 276 275 275 275 276 277 273 270 271 270 268 267 266 265 264 262 261 259 256 255 256 259 258 258 264 269 269 267 265 266 266 262 260 260 260 263 263 260 261 262 263 266 268 269 270
193 197 200 202 205 207 210 213 216 221 227 239 253 265 275 282 289 294 298 302 308 314 316 316 317 315 307 303 299 290 285 284 284 282 280 280 281 281 279 277 277 275 274 278 281 278 272 269 271 271 270 269 267 266 265 265 264 261 257 256 257 259 257 256 259 264 270 271 268 266 265 261 260 260 261 260 258 256 258 262 263 266 268 268 268
192 194 197 200 202 204 208 210 212 218 226 238 252 265 275 283 292 296 298 304 310 315 318 319 318 312 303 298 295 291 287 286 287 286 283 283 283 284 282 278 276 274 274 280 283 278 272 270 270 270 270 269 268 266 265 265 264 263 261 259 258 258 257 255 255 256 260 266 268 267 267 265 263 265 266 262 257 255 258 263 265 267 270 271 270
190 192 194 196 198 201 204 206 210 216 224 238 251 263 274 283 291 296 298 304 311 315 318 320 317 311 304 297 294 293 291 289 289 288 286 286 285 284 283 278 276 277 278 281 280 275 272 270 269 270 269 267 267 265 264 264 264 264 265 264 263 263 262 262 261 262 264 264 262 261 261 263 266 267 267 263 259 260 261 264 266 269 274 274 272
187 189 191 192 195 199 200 203 208 214 223 236 248 260 274 283 289 295 299 304 311 316 319 321 318 312 307 301 298 297 295 292 291 291 289 290 288 285 284 282 281 282 280 279 277 273 271 270 268 267 265 264 265 264 264 265 263 262 264 264 265 265 265 266 266 266 268 270 271 266 259 258 262 266 265 260 257 262 266 268 269 270 275 275 273
185 186 188 190 192 196 198 201 206 213 223 232 245 258 272 281 287 294 299 307 315 319 320 320 316 312 308 305 302 299 296 294 292 293 292 292 290 288 288 287 284 281 276 272 272 270 268 267 265 263 260 260 263 264 265 265 263 262 263 264 265 264 264 266 266 265 264 265 271 273 269 263 259 261 260 256 256 263 267 272 274 273 274 271 271
182 184 186 189 192 193 196 200 205 212 220 228 242 257 269 277 284 293 302 311 318 320 321 320 315 311 309 307 302 296 294 294 293 293 293 295 294 291 291 289 286 284 280 275 272 269 268 266 262 259 257 257 258 261 262 261 260 261 263 263 264 264 265 267 268 269 265 261 260 263 268 270 265 260 256 253 258 263 263 267 269 275 280 276 273
181 183 185 188 191 192 195 199 204 211 217 225 238 251 265 276 284 296 305 315 322 322 322 321 315 310 305 302 298 294 292 292 293 293 294 296 297 294 292 289 287 286 284 280 276 273 272 269 263 258 255 253 252 255 258 257 256 257 260 263 262 263 265 266 267 270 269 266 260 255 260 268 266 263 258 253 257 262 268 270 269 276 281 280 279
179 182 185 187 190 191 194 199 203 209 214 221 234 245 261 276 287 300 311 322 326 323 322 319 314 306 299 297 296 294 291 290 292 294 295 297 298 297 295 291 286 283 282 281 278 275 275 273 269 265 260 254 252 254 258 258 256 253 255 261 262 260 260 261 263 266 267 270 270 263 258 261 262 264 263 259 259 264 272 275 275 280 279 278 280
178 181 184 187 190 190 193 198 201 206 211 218 230 244 260 275 291 308 321 326 326 323 320 314 309 303 299 297 297 295 293 295 297 297 298 300 300 298 296 293 289 286 284 283 281 280 279 277 274 273 269 261 254 254 257 259 258 256 256 259 262 262 259 259 261 262 262 264 269 269 268 268 268 265 262 261 262 263 272 278 281 282 271 267 280
178 181 183 186 189 190 193 197 200 203 208 216 227 242 260 278 303 321 326 327 324 320 316 310 307 306 302 299 299 297 296 300 302 301 302 304 303 300 298 295 293 291 289 287 286 286 286 284 281 278 276 270 261 257 259 261 259 258 259 261 263 263 262 261 262 262 261 261 263 264 263 270 275 269 260 260 265 267 275 281 285 291 279 266 266
179 181 184 187 188 190 193 195 197 200 204 212 223 241 262 288 319 328 327 326 322 316 313 310 309 309 304 301 302 300 301 305 305 304 306 307 306 304 301 297 295 294 293 292 290 289 288 287 285 282 279 278 272 266 267 267 262 260 262 263 262 262 262 261 261 261 261 262 261 260 259 262 270 274 270 267 267 270 278 281 287 298 294 286 281
179 181 184 187 188 190 192 192 193 196 200 208 219 237 268 312 331 330 326 324 319 314 312 310 310 310 308 307 306 303 307 311 308 305 307 308 307 307 303 299 297 295 295 294 292 290 288 287 285 283 280 278 276 272 271 270 266 263 264 262 259 259 260 260 260 260 260 259 258 259 260 258 260 269 274 274 270 268 273 281 287 295 293 292 294
179 182 183 186 188 188 189 190 190 192 196 203 213 230 287 331 332 328 323 318 314 312 311 309 309 310 312 314 311 307 309 311 307 306 308 309 309 309 305 300 298 296 295 294 291 289 288 285 284 283 282 279 276 275 273 271 268 265 261 258 256 256 258 258 259 260 259 258 256 256 258 258 256 261 267 271 272 267 269 278 283 290 293 292 295
179 181 183 185 186 187 187 187 187 189 193 198 201 202 328 330 328 324 319 317 315 313 312 311 310 309 313 318 316 312 311 309 306 307 310 311 311 310 306 301 299 296 295 294 292 290 288 286 284 282 281 280 277 275 275 273 271 266 261 256 254 255 256 257 258 260 260 259 257 254 254 256 255 256 259 264 269 269 272 279 279 284 291 289 296
179 182 184 185 185 185 186 185 185 187 189 188 179 146 8 330 326 319 316 318 318 317 315 314 312 310 312 318 318 313 310 309 308 308 310 312 313 312 307 303 300 297 296 295 294 293 290 287 285 283 282 281 278 276 276 274 273 271 265 258 252 249 252 257 259 261 261 260 259 256 253 252 252 253 255 258 263 266 271 278 277 283 289 276 293
181 183 184 184 184 184 184 183 185 186 182 172 154 124 8 327 326 324 322 320 317 319 320 314 309 310 315 320 319 309 303 305 308 309 310 313 315 313 309 305 301 297 298 298 296 295 293 290 289 286 284 283 280 278 277 275 272 270 266 261 254 246 249 256 261 264 262 262 264 262 254 250 249 250 253 255 259 262 264 268 273 283 285 269 289
183 183 182 182 182 182 181 182 184 181 171 157 140 112 11 331 332 329 326 322 318 320 322 314 310 314 317 318 314 303 299 303 308 310 313 316 317 315 312 308 303 300 301 301 299 298 297 295 292 289 286 285 284 281 279 277 273 270 266 262 254 249 253 255 259 265 266 262 263 265 259 250 245 246 250 254 257 259 258 262 266 269 267 263 281
182 181 181 180 180 179 179 180 179 172 157 144 131 99 19 336 336 330 325 325 321 320 322 319 313 312 311 307 303 299 300 304 308 312 315 317 319 319 315 312 308 305 305 305 303 302 301 299 296 293 290 288 286 284 282 279 276 273 269 261 249 248 253 252 250 258 265 261 258 260 261 254 245 243 247 251 255 256 256 257 255 253 253 258 268
179 179 178 178 177 176 177 176 171 161 146 133 121 94 23 338 336 332 328 326 324 324 327 322 310 304 305 302 300 301 304 307 310 315 317 318 320 321 319 316 313 311 310 308 306 304 303 301 299 297 294 291 289 287 284 281 278 275 271 264 255 250 250 248 245 251 259 259 252 251 254 252 247 244 244 246 250 250 251 250 246 246 248 250 257
176 176 175 174 174 173 173 171 162 151 140 127 116 98 21 346 341 339 335 332 329 328 326 317 307 306 307 306 305 306 308 309 312 316 319 320 322 323 321 320 319 317 313 310 307 306 304 303 302 300 297 294 291 287 284 280 277 274 271 267 264 258 250 242 240 245 253 256 254 249 247 245 244 243 241 242 245 244 244 246 244 246 249 247 252
174 173 171 170 170 170 169 165 154 143 136 127 115 102 18 353 353 350 345 341 330 322 318 312 310 311 311 312 313 312 312 313 315 318 321 322 324 324 323 322 323 321 316 311 309 308 307 306 306 305 303 300 296 291 285 279 273 270 268 267 266 263 254 241 235 239 244 250 254 253 249 243 239 240 240 240 241 241 243 247 247 249 253 251 253
171 170 168 166 167 167 163 156 148 138 131 125 113 104 51 4 5 2 357 349 323 310 314 315 314 316 318 319 318 317 317 317 317 319 323 326 327 327 326 326 326 325 320 314 310 310 311 312 311 310 308 307 305 300 291 279 268 263 262 264 266 267 257 241 234 237 239 244 247 246 247 246 239 238 239 237 240 242 245 251 253 252 256 257 258
168 166 165 164 164 163 156 148 143 135 128 123 114 104 70 25 17 9 1 348 315 311 317 317 318 322 323 321 320 321 322 321 319 320 325 329 331 330 329 328 329 328 324 319 314 315 317 317 315 314 314 314 314 311 299 279 266 262 259 259 262 263 254 239 235 237 236 242 247 245 246 245 241 242 244 242 244 248 247 251 257 257 260 264 263
164 162 162 163 162 158 151 145 141 135 127 120 114 102 74 41 30 18 356 325 314 313 313 318 324 326 324 322 322 322 323 323 321 323 328 333 333 333 333 332 331 331 328 323 322 323 321 319 319 319 318 318 321 323 315 289 268 264 260 259 259 256 245 234 234 237 235 237 243 246 248 248 244 245 246 243 244 246 246 250 257 259 263 264 260
160 160 161 162 161 155 150 147 142 133 125 120 118 106 77 51 40 29 342 306 315 316 318 326 330 327 325 324 323 323 323 324 325 329 335 337 336 336 337 336 334 334 332 331 331 328 322 320 322 323 322 323 329 337 339 327 297 274 262 256 254 248 241 237 237 240 242 243 245 247 250 252 250 246 242 239 240 243 244 246 250 256 260 257 249
159 159 161 161 159 154 151 150 143 133 125 120 120 114 94 73 62 49 300 301 313 320 326 331 331 328 326 325 325 325 324 325 330 336 339 339 339 339 340 340 338 338 337 337 335 328 323 324 327 329 331 334 338 343 348 347 338 323 302 276 256 244 241 241 242 241 241 243 248 251 250 249 249 247 243 241 243 244 243 241 243 251 253 246 235
157 158 160 158 155 153 152 149 143 136 127 119 116 115 102 84 74 62 332 317 321 323 327 329 330 330 328 326 327 328 327 329 335 338 339 340 341 342 343 341 341 341 342 341 336 330 329 332 334 336 339 341 343 344 346 346 344 341 338 329 308 276 252 240 237 238 238 238 240 244 245 246 246 246 246 246 245 245 243 242 244 246 240 230 221
156 159 159 156 155 155 152 146 141 135 126 117 110 107 105 96 82 55 353 335 332 334 335 334 334 334 331 330 331 329 328 332 336 339 340 341 342 345 346 345 344 346 348 345 341 340 339 337 337 341 343 343 343 344 343 342 339 336 335 334 330 319 297 268 244 234 234 237 238 238 239 241 244 245 245 246 246 246 247 246 243 239 227 214 208
157 160 159 157 156 156 151 145 140 133 125 117 103 93 95 97 106 106 25 354 353 356 352 346 345 345 342 339 338 334 333 337 340 341 342 342 344 348 349 348 349 352 352 348 347 350 349 342 338 340 342 344 344 341 339 339 337 334 330 327 326 328 324 313 295 270 248 237 237 240 238 236 240 243 243 246 247 249 253 250 241 229 215 203 198
160 159 158 157 156 155 150 145 140 133 126 119 104 84 65 51 67 103 42 19 25 20 7 360 357 357 355 350 347 345 343 344 344 343 343 344 346 350 351 352 354 356 356 355 355 354 350 345 339 337 338 342 343 340 339 338 335 331 329 325 323 325 324 322 319 310 289 257 238 236 237 236 238 241 244 247 249 251 256 250 232 215 205 200 192
162 157 156 156 155 154 150 145 141 136 130 124 116 100 75 44 26 2 356 17 46 50 28 16 9 7 6 0 354 350 348 348 347 346 346 348 349 351 353 355 358 359 358 356 354 353 349 344 341 338 337 337 339 338 337 336 333 332 330 325 322 321 320 318 317 314 310 293 262 240 233 235 237 239 242 246 246 248 253 245 220 202 199 199 187
163 159 159 158 155 154 152 147 142 138 134 130 124 117 110 90 54 12 353 356 4 9 17 23 21 18 14 8 360 354 351 351 350 347 347 350 351 352 355 359 3 5 4 360 353 350 348 342 339 339 337 335 336 336 335 332 331 332 332 328 324 322 321 321 320 318 319 316 298 267 244 236 237 239 243 245 244 245 245 234 211 195 194 195 182
162 159 159 159 156 153 151 148 143 139 137 135 133 130 129 128 113 77 353 331 331 333 345 2 15 22 18 10 3 357 352 350 349 349 350 353 354 357 2 4 2 2 1 357 352 348 344 338 336 336 334 331 332 333 333 331 328 328 329 329 327 324 322 322 322 321 319 317 313 303 280 257 246 244 248 247 241 241 241 224 203 193 192 191 181
159 157 157 158 156 153 151 147 144 142 139 137 136 138 138 135 130 134 190 271 302 315 332 349 4 18 21 16 14 9 359 352 350 349 351 355 359 4 6 2 355 352 350 347 344 343 340 337 334 332 331 329 329 331 333 331 327 324 325 326 324 323 322 321 320 322 320 317 317 318 311 291 264 247 245 247 238 233 235 220 199 191 191 190 182
158 157 157 157 155 153 150 146 144 142 140 137 137 139 139 135 132 135 154 299 322 325 336 349 1 10 13 15 19 13 1 356 0 4 5 7 9 10 6 354 346 344 340 338 339 339 338 337 334 330 329 327 324 326 331 332 327 323 324 326 324 322 323 323 320 320 322 321 320 322 320 309 284 252 238 239 235 228 227 217 199 191 189 187 182
160 159 158 157 155 153 149 146 145 142 139 139 139 138 136 132 125 120 106 37 13 358 350 355 2 0 357 4 11 4 352 356 8 12 11 11 10 6 1 354 347 340 334 335 337 336 335 336 335 330 328 326 321 320 328 333 331 327 324 323 325 327 330 331 331 331 330 327 322 317 313 310 300 270 241 231 226 219 217 213 201 191 184 181 180
158 158 158 157 156 154 150 147 146 144 142 142 141 139 136 130 122 115 83 45 30 12 0 360 360 353 352 3 7 355 344 350 360 1 359 1 2 360 357 356 353 345 335 333 337 337 337 339 338 333 330 328 323 322 329 334 333 330 327 325 328 334 337 337 336 337 334 327 319 312 304 303 306 296 264 233 216 207 208 209 200 190 180 174 179
155 155 156 157 156 154 151 148 146 144 145 145 142 140 138 129 120 109 81 55 36 17 7 0 356 355 0 6 2 348 340 346 352 352 352 354 356 357 356 354 353 352 345 339 340 341 341 344 343 338 333 332 329 327 330 335 335 331 330 331 333 338 340 337 334 334 331 321 313 307 299 297 306 310 296 253 217 202 200 204 198 188 182 177 178
153 152 154 157 156 153 151 149 148 147 147 145 143 143 138 127 116 101 80 65 41 18 9 1 359 4 9 6 354 344 346 352 354 353 354 353 352 354 355 353 353 354 352 348 346 345 344 347 348 343 338 339 340 335 333 338 341 336 332 334 340 343 343 339 334 329 324 316 308 304 301 301 305 312 310 288 239 206 196 198 197 190 185 183 181
154 154 155 158 158 155 152 151 149 147 146 145 144 143 137 125 115 100 83 72 48 23 10 3 5 12 17 11 359 354 0 4 1 357 357 356 354 353 354 354 354 355 354 353 351 348 346 348 350 347 343 345 347 342 335 339 345 342 336 336 340 344 346 343 337 329 322 316 311 310 312 312 310 310 312 307 278 218 194 193 195 191 189 187 182
156 156 157 158 158 157 155 152 150 148 148 148 145 141 135 126 118 105 92 79 56 31 13 6 7 13 17 15 11 9 10 10 6 1 359 357 355 354 354 355 357 358 359 359 357 353 351 352 352 351 350 350 350 347 340 338 345 346 343 341 342 345 347 345 339 332 327 324 322 322 323 321 317 314 313 312 299 242 197 190 193 192 189 186 180
156 156 156 157 157 156 154 152 151 150 150 149 144 138 132 128 122 111 99 86 66 41 20 11 10 12 13 12 13 14 13 10 7 4 1 358 356 355 355 356 359 0 2 3 2 359 358 357 355 355 355 355 355 353 348 343 346 349 347 344 345 348 349 346 342 338 335 331 328 328 328 325 319 313 310 311 309 278 202 186 187 189 186 181 175
156 156 156 156 156 156 154 152 153 152 151 147 142 136 133 132 130 119 104 91 73 48 30 20 14 12 11 10 11 12 11 9 7 6 3 359 357 356 357 359 1 2 3 4 4 4 2 0 358 357 357 357 358 358 354 350 352 355 354 351 351 352 351 348 345 342 339 336 332 329 327 325 320 314 309 309 308 294 226 185 181 181 179 174 173
158 157 157 156 156 155 155 154 154 154 152 147 141 138 136 137 135 123 107 96 82 56 35 25 20 17 13 10 9 9 9 8 8 7 5 1 359 359 360 1 3 5 6 6 6 6 5 3 1 360 359 358 358 359 357 353 354 358 0 359 358 358 356 352 349 347 345 344 342 337 331 327 323 317 314 312 308 294 243 191 179 179 176 172 172
160 159 159 159 158 156 155 156 156 154 151 146 143 142 141 140 137 128 113 100 84 61 40 28 23 20 15 11 9 8 9 9 9 7 5 3 2 2 3 4 5 7 8 8 8 7 7 6 5 3 1 359 359 359 358 356 355 358 1 1 1 1 0 357 355 354 351 351 352 351 344 335 329 325 323 324 319 301 240 193 182 182 181 177 175
161 160 160 160 159 157 157 157 157 155 152 148 146 146 144 141 140 134 122 108 88 61 43 33 25 21 16 12 9 9 10 11 10 7 6 5 4 4 5 6 6 6 8 9 9 9 9 9 8 6 4 3 2 1 360 358 357 359 1 2 2 3 3 3 2 359 356 356 0 1 354 344 339 337 337 340 340 331 269 195 185 184 183 180 179
162 162 162 162 161 160 159 159 158 155 152 150 149 148 145 144 145 140 127 112 95 65 42 32 27 22 17 12 10 11 12 12 10 7 5 3 4 5 5 6 7 7 7 8 9 10 11 11 11 9 8 6 4 2 1 1 1 1 3 3 3 3 5 7 7 5 1 1 4 6 4 0 357 355 354 356 359 357 349 232 189 185 183 181 180
163 163 163 163 162 160 159 159 156 152 152 152 151 149 149 149 147 142 132 117 99 72 45 34 28 21 15 10 9 11 13 12 8 5 3 2 3 4 5 6 7 8 8 9 10 11 12 13 12 11 10 8 6 5 4 3 2 1 2 3 4 5 7 9 9 8 6 6 8 10 12 12 10 8 6 7 8 7 3 358 337 192 185 182 180
163 164 163 163 161 160 159 158 155 152 153 154 153 153 155 154 149 144 137 123 104 77 49 38 29 19 13 11 9 11 14 11 6 3 2 1 1 2 3 5 6 7 7 9 10 11 13 13 13 11 10 9 8 7 6 3 1 0 1 3 6 7 9 9 9 9 10 12 13 15 16 17 17 16 13 10 7 5 7 9 9 3 194 187 185
Height
758 760 762 764 766 768 770 771 773 774 775 775 775 775 775 774 774 774 773 773 771 770 768 766 765 764 763 762 760 759 757 756 754 752 750 747 744 742 739 738 736 733 731 729 728 726 723 720 717 715 714 711 708 706 704 703 700 698 696 692 690 687 684 681 670 659 657 657 654 651 649 647 643 639 636 633 631 630 628 626 624 622 621 619 616
754 756 759 761 763 765 767 768 770 771 772 772 772 772 772 772 772 771 771 770 768 767 765 764 763 762 760 759 758 756 755 753 751 749 746 743 741 739 736 734 732 730 728 725 723 722 719 716 713 711 710 707 704 702 700 698 696 692 690 687 684 681 680 676 669 660 652 649 650 647 643 642 637 631 630 628 626 625 623 620 618 617 616 615 611
750 752 755 758 760 762 764 765 767 768 769 769 769 769 769 769 769 768 768 767 765 764 762 761 760 758 757 756 755 754 752 750 748 746 743 740 738 736 733 732 729 726 724 721 719 717 715 711 709 707 706 702 699 698 695 693 691 687 684 682 679 675 674 672 667 660 651 645 645 642 637 635 630 625 624 622 621 619 616 614 613 611 610 608 606
746 749 752 755 757 759 761 762 764 765 766 766 766 766 765 765 765 765 764 763 761 760 759 757 756 755 754 753 751 750 748 747 745 742 740 737 735 732 730 728 726 723 720 717 715 713 710 707 704 702 701 698 695 693 691 688 686 682 678 676 673 669 667 665 661 656 650 643 640 638 634 630 625 620 618 617 614 612 610 609 608 606 603 601 599
742 745 749 752 754 756 758 759 760 761 762 762 762 762 762 762 761 761 760 759 758 757 755 754 753 751 750 749 747 746 744 742 740 738 736 733 731 728 726 724 722 719 716 713 711 709 706 702 700 698 696 693 690 687 685 683 680 677 673 670 667 664 661 658 655 651 646 639 635 633 630 626 621 616 614 611 607 605 604 604 602 600 597 594 592
739 742 746 749 751 753 754 756 757 758 758 758 758 758 758 758 757 757 756 755 754 753 751 750 749 748 747 745 743 742 739 738 736 733 731 729 726 724 722 720 717 714 712 709 706 703 700 697 694 693 690 687 684 681 679 677 674 671 668 665 662 659 655 652 649 645 642 637 632 628 623 620 617 612 608 606 603 599 599 598 596 594 591 587 585
736 739 743 746 748 749 751 752 753 754 754 754 755 754 754 754 754 753 753 752 750 749 747 746 745 744 743 741 739 738 735 734 732 729 727 725 723 721 719 716 713 709 706 703 700 696 693 690 687 685 683 680 678 676 673 671 668 665 662 659 656 653 649 647 643 639 636 633 630 626 619 614 611 606 602 601 599 595 595 593 588 586 585 583 580
732 737 740 743 745 746 747 748 749 750 750 750 751 750 750 751 750 750 750 748 747 745 744 743 742 741 739 737 736 734 732 730 728 726 723 721 719 717 714 712 708 704 701 697 694 690 686 683 679 677 675 673 671 669 666 664 661 658 656 653 651 648 644 641 638 634 630 626 623 621 617 610 604 598 595 595 594 591 590 589 583 580 580 579 577
729 734 737 740 742 743 744 745 745 746 746 746 746 746 747 747 747 747 746 745 743 742 741 740 739 737 736 734 733 731 728 726 724 722 720 717 715 712 710 707 703 699 695 691 687 684 680 676 672 669 666 663 662 660 658 657 655 652 649 647 645 642 638 636 633 630 626 620 615 613 611 605 598 592 589 589 588 586 585 584 579 577 577 575 572
726 731 734 737 739 740 741 742 742 743 743 743 743 743 744 744 744 744 742 742 741 739 738 737 736 734 733 731 729 727 725 722 720 719 717 714 712 708 704 701 698 694 689 684 679 676 673 669 665 662 658 655 653 651 650 649 647 644 642 640 638 635 632 629 627 626 622 616 610 606 602 597 590 586 583 583 583 582 581 579 576 575 576 573 568
724 728 731 733 735 737 738 739 739 740 740 740 740 740 741 741 741 740 739 738 738 737 736 735 733 732 730 728 726 723 721 718 716 715 713 711 709 705 700 696 692 688 683 678 673 669 665 662 658 655 651 648 645 643 641 639 638 636 634 632 630 628 625 621 619 618 616 612 607 602 596 591 585 582 580 579 579 578 577 576 574 573 573 571 567
721 725 728 730 732 734 735 736 737 737 737 737 737 738 739 738 737 736 735 735 735 735 734 732 730 729 727 725 722 720 717 714 712 711 708 706 704 701 697 692 687 683 678 673 669 664 660 656 652 649 645 642 639 636 633 631 629 628 626 624 622 620 617 615 612 610 609 606 602 597 593 589 584 580 577 577 576 575 575 574 573 572 569 567 564
718 722 724 726 728 730 732 733 734 734 734 734 735 736 735 734 733 732 732 733 733 732 731 729 728 726 724 721 719 716 713 710 708 707 704 701 699 696 692 688 683 678 674 670 665 660 656 651 647 643 640 637 634 631 627 624 621 620 618 616 614 611 609 607 605 603 602 600 596 591 588 588 584 579 576 575 574 573 573 572 572 572 568 565 562
715 718 721 723 725 727 729 730 731 731 732 732 732 732 731 730 730 730 730 730 730 730 729 727 725 723 721 719 715 712 709 706 704 703 700 697 694 691 687 683 679 674 670 666 661 656 652 647 642 637 634 631 628 625 622 618 615 613 611 608 605 603 602 600 598 597 596 593 590 586 584 584 581 578 576 574 572 571 571 570 570 570 568 564 561
712 715 718 720 722 724 725 727 728 728 729 729 729 728 727 726 727 727 728 728 728 727 726 724 722 720 718 716 712 709 706 703 701 699 696 693 690 687 683 678 674 670 665 662 657 651 647 643 637 632 628 625 622 619 616 612 609 606 603 601 598 596 595 593 592 591 588 586 584 582 581 579 577 576 575 572 570 569 569 568 567 567 566 562 557
710 712 715 716 718 721 722 723 724 725 726 726 725 724 723 724 724 725 726 726 726 725 724 722 719 717 715 713 710 706 702 700 699 696 693 691 687 683 679 674 669 665 660 656 651 646 642 637 631 626 622 618 615 613 611 607 603 599 596 593 591 589 587 586 586 585 582 580 578 577 576 574 572 572 572 569 567 566 566 565 564 565 565 559 552
707 709 711 713 715 717 719 720 721 722 723 722 721 720 721 721 722 723 724 724 723 723 721 719 717 714 712 710 707 703 699 697 696 694 691 688 684 679 675 669 664 660 655 650 646 640 636 632 626 621 615 611 609 606 604 602 597 593 590 587 584 582 579 580 580 578 575 573 572 571 570 568 567 567 567 565 564 564 562 560 560 561 561 556 549
703 705 708 710 712 714 715 717 718 719 719 718 717 718 719 720 720 721 721 722 721 720 719 716 714 712 710 707 704 701 697 694 693 691 688 685 682 676 671 665 659 654 649 644 640 634 629 625 621 616 609 605 602 599 597 595 591 587 584 581 577 574 573 574 574 572 569 567 565 564 563 561 561 561 561 561 561 561 559 556 557 557 556 554 549
700 702 705 707 710 711 713 714 715 716 715 714 715 716 717 718 718 719 719 720 719 718 716 714 712 710 707 704 702 699 694 692 690 688 685 682 679 674 668 661 654 648 643 638 633 628 623 618 614 610 604 599 595 592 589 588 584 580 577 574 570 567 567 568 568 567 565 562 560 559 557 555 555 555 556 556 556 556 555 554 555 554 552 551 550
696 699 702 705 707 709 711 712 713 713 712 712 713 714 715 715 716 717 718 718 717 716 714 712 710 707 705 702 699 696 693 689 688 686 682 679 675 671 665 659 651 644 639 634 627 621 617 612 607 604 599 594 590 586 583 581 578 574 571 567 563 560 561 562 562 562 561 558 556 555 553 550 550 549 550 550 551 551 552 551 551 551 549 550 549
694 697 699 702 705 707 709 711 710 710 710 710 711 712 713 713 714 715 716 716 715 713 711 710 708 705 703 701 697 694 692 688 685 683 679 676 672 668 662 656 650 642 635 630 624 617 611 606 601 597 594 589 584 580 576 573 571 568 564 560 556 555 556 556 556 557 557 554 551 550 549 547 546 544 544 544 544 546 547 546 546 546 547 547 546
691 694 696 699 702 705 707 708 708 708 707 708 709 710 711 712 713 714 715 714 712 711 709 708 707 704 701 698 695 692 690 687 684 680 677 673 669 665 660 654 649 642 633 626 621 615 608 602 596 592 588 582 578 573 569 566 564 561 557 553 551 550 550 550 551 552 552 550 547 545 544 543 541 540 538 537 538 539 541 540 541 542 542 541 542
688 691 694 697 699 703 705 706 705 705 705 706 708 708 709 711 712 712 712 711 710 709 708 707 705 702 698 695 693 690 688 685 682 678 674 670 665 661 657 651 646 641 633 625 618 612 605 599 592 586 581 575 569 564 560 557 555 552 549 547 545 545 545 545 546 547 547 546 544 541 539 538 536 535 533 532 532 533 534 534 535 536 536 536 536
686 688 691 694 698 701 702 703 703 703 704 705 706 707 708 710 711 711 710 710 709 709 708 705 702 699 696 693 691 688 686 683 680 676 671 667 662 657 653 648 643 638 632 624 617 610 603 596 589 581 574 568 561 555 549 545 544 542 542 541 540 539 540 540 540 541 542 541 539 536 534 534 533 530 528 528 528 529 529 530 529 529 530 530 530
682 686 689 692 696 699 699 700 700 701 702 703 704 706 707 708 709 709 709 709 709 708 706 704 700 698 695 692 689 686 684 680 677 673 668 664 659 654 649 644 639 634 629 622 615 609 602 594 586 578 571 563 556 547 539 535 534 534 535 535 535 534 534 535 535 536 536 536 534 531 529 530 530 528 527 527 527 526 526 525 524 524 524 524 524
679 683 687 691 695 696 695 696 698 699 700 701 702 704 706 707 707 707 707 708 708 707 704 702 699 697 694 692 688 685 682 679 674 670 665 660 656 651 646 641 636 631 626 619 613 606 599 592 584 577 569 562 555 546 537 531 530 530 529 529 529 529 529 530 531 531 531 531 530 527 525 526 527 526 526 525 524 523 522 522 521 519 518 518 517
676 680 685 689 692 692 692 694 696 697 698 699 701 703 704 705 705 706 706 707 706 705 702 700 698 696 693 691 688 684 681 677 673 667 662 658 654 649 644 639 634 628 622 616 610 604 597 590 583 576 569 562 554 546 538 532 529 527 526 525 525 525 525 526 526 526 527 527 526 523 522 523 523 522 522 522 520 519 519 519 517 515 514 513 512
673 678 684 687 688 688 690 692 693 695 696 697 699 700 702 703 703 704 705 705 704 703 701 699 697 695 693 690 686 683 680 676 672 667 662 658 654 648 643 638 633 628 622 616 609 603 596 589 582 576 568 561 554 547 541 536 532 528 526 524 523 522 522 523 523 523 523 524 523 521 520 519 518 517 516 516 515 514 514 515 513 511 510 511 508
672 678 683 684 685 686 689 690 691 692 693 695 697 698 699 700 701 702 703 703 703 702 700 698 697 695 692 690 686 682 678 674 671 668 664 660 656 651 645 640 635 629 624 617 610 603 596 589 583 577 570 563 557 551 546 541 537 532 529 526 524 521 519 519 518 518 519 520 519 517 516 515 513 511 511 511 510 510 510 510 509 508 508 507 505
672 678 680 681 682 684 687 688 689 690 691 693 695 697 698 698 699 700 700 701 701 700 699 698 696 694 692 690 687 684 680 675 671 668 664 661 657 653 647 642 636 630 624 618 611 603 597 591 585 580 574 568 562 557 552 548 543 538 533 529 526 523 520 516 513 512 512 513 513 511 510 510 509 507 507 506 505 505 505 505 505 504 504 503 501
671 675 677 678 680 683 685 686 687 688 689 691 693 695 697 697 698 698 699 698 698 697 697 696 695 693 691 688 686 684 681 677 672 668 664 661 657 652 648 642 636 631 625 619 612 605 599 594 589 583 578 573 568 563 558 553 549 543 537 533 529 526 522 517 513 510 507 505 505 505 504 505 505 504 503 503 503 502 501 500 500 499 498 498 497
667 670 673 675 678 681 682 683 685 686 687 689 691 692 694 695 695 696 697 697 696 696 695 693 691 690 688 686 684 682 679 675 672 668 665 661 656 652 647 642 636 631 625 619 613 607 602 597 592 587 581 576 571 566 561 556 552 547 541 536 530 526 524 520 515 511 505 501 499 499 500 500 501 501 501 501 500 499 497 496 495 493 493 493 493
661 664 667 672 675 678 680 681 683 684 686 688 690 691 692 692 693 693 694 694 695 695 694 692 689 687 685 684 682 680 678 674 671 668 665 660 656 651 647 642 637 633 627 621 615 609 605 601 596 590 585 580 574 569 564 559 554 548 543 538 533 528 524 520 516 512 506 500 496 494 495 495 496 497 497 496 495 494 492 490 489 488 488 489 489
659 660 664 667 671 674 677 679 680 682 684 686 688 690 691 692 692 693 693 693 693 692 691 689 687 685 683 682 680 679 676 673 671 668 664 660 655 651 645 640 636 632 627 623 618 613 608 604 599 593 588 582 577 572 566 560 555 549 543 538 533 528 523 519 516 513 507 501 496 492 489 489 490 490 490 489 489 489 487 484 483 483 484 486 486
659 660 663 666 668 671 674 676 678 680 682 685 687 688 690 691 692 693 695 695 694 692 690 688 686 685 683 681 679 677 675 673 671 668 664 660 655 649 643 637 632 628 625 622 619 616 611 606 601 596 590 585 579 574 568 562 557 551 544 538 533 528 524 520 517 514 508 503 497 491 486 483 482 483 483 483 483 482 480 478 478 479 481 482 483
657 660 663 665 667 670 672 674 677 679 680 683 685 687 688 690 691 693 694 695 694 693 690 688 686 684 683 681 679 677 675 673 671 668 664 660 655 649 644 640 637 633 630 626 623 618 614 609 604 598 593 588 582 576 571 565 559 553 548 542 536 531 527 523 519 514 508 502 497 491 486 481 478 477 478 478 478 476 475 474 474 475 478 480 481
654 657 661 663 666 669 671 673 675 677 678 681 683 685 687 688 690 691 692 692 692 691 690 688 686 684 682 680 678 676 675 674 671 668 664 660 655 651 648 645 642 639 635 630 626 620 615 610 605 600 595 590 584 578 572 567 561 555 550 544 539 534 529 524 519 514 508 502 497 492 488 483 478 476 475 475 473 472 471 471 471 472 475 478 479
652 655 658 661 664 667 669 671 673 675 677 679 681 683 685 687 688 689 690 690 689 689 688 687 686 685 683 681 678 677 675 673 670 666 662 657 654 651 650 647 645 641 637 633 628 623 617 612 607 602 596 591 584 579 573 568 562 556 550 543 538 532 526 521 516 511 506 502 498 496 493 488 481 476 473 471 470 469 469 470 470 471 473 476 478
653 655 658 661 663 666 667 669 671 673 675 677 679 682 683 685 687 687 687 687 687 686 686 686 686 685 683 680 678 677 676 673 670 666 662 658 655 653 650 647 645 642 638 633 628 624 619 613 608 603 598 591 585 579 574 568 561 555 548 541 535 529 523 518 513 509 507 505 502 500 497 491 483 476 471 468 467 467 468 469 469 469 472 475 477
650 654 657 660 663 665 666 668 669 671 673 675 678 680 682 683 684 685 685 685 685 685 685 685 684 683 682 679 678 678 676 674 671 667 663 659 656 653 651 648 645 642 638 634 629 625 620 615 609 604 598 592 586 580 574 568 561 554 547 541 535 529 524 519 515 512 511 509 507 504 498 491 483 476 470 466 465 466 466 467 468 469 470 473 475
646 651 656 659 661 663 665 667 668 670 672 674 677 679 681 681 682 682 683 683 683 684 684 684 683 682 680 679 679 679 677 673 670 667 664 660 657 654 651 649 646 642 638 634 630 626 621 616 611 605 599 594 587 581 575 568 561 554 547 541 536 531 526 522 519 517 515 513 509 504 498 489 482 476 470 466 464 464 464 465 466 468 469 471 473
644 648 652 657 660 662 664 666 667 668 671 673 676 678 679 679 680 681 681 682 682 683 683 683 682 681 680 679 679 678 675 672 670 667 664 661 658 655 652 649 646 642 639 635 631 627 623 617 612 607 601 595 589 582 575 569 562 555 548 542 538 533 529 525 522 519 516 511 505 499 492 485 479 474 470 466 463 462 462 464 465 466 468 470 472
641 645 650 654 658 660 662 664 665 667 670 672 674 676 677 677 678 679 680 680 681 681 681 681 681 680 679 679 678 676 674 671 669 666 664 661 658 655 652 649 646 642 639 635 631 628 623 618 613 608 603 597 591 584 578 572 566 559 552 545 539 535 531 527 522 517 512 506 498 491 485 481 477 473 469 465 462 461 461 462 463 465 466 469 471
640 645 649 653 656 659 661 662 664 666 669 671 673 673 674 675 677 678 679 679 680 680 680 680 680 679 679 678 677 675 672 670 668 666 664 661 659 656 653 649 646 642 638 634 631 627 623 618 614 609 603 598 593 586 580 575 570 564 556 548 542 537 532 527 522 516 509 502 495 488 483 480 476 473 469 465 462 460 460 461 462 463 465 467 470
639 643 648 651 655 657 659 661 663 665 667 669 670 671 672 674 675 676 677 678 678 679 680 679 679 678 678 677 676 674 672 670 668 666 663 661 659 656 653 649 646 642 638 634 630 626 622 618 614 609 603 598 592 586 581 577 572 567 560 553 547 541 535 529 523 517 510 503 496 491 485 481 477 474 470 466 463 460 459 459 461 462 464 467 470
638 642 646 649 652 655 658 660 662 664 666 667 667 669 671 673 674 675 676 677 677 678 678 678 678 678 677 676 675 673 671 669 667 665 663 662 659 656 653 649 646 642 639 635 631 627 623 618 614 609 604 598 593 587 582 577 573 568 562 557 551 546 540 533 526 519 513 507 501 495 489 484 480 475 471 468 464 461 459 460 461 462 465 467 470
638 641 645 648 651 654 656 658 660 662 663 664 665 667 669 671 672 673 675 675 677 677 677 677 677 676 676 676 674 672 670 669 667 665 663 662 659 656 653 649 646 642 639 636 632 627 623 619 614 610 605 600 594 589 583 578 574 570 564 559 554 548 543 536 529 523 517 511 505 499 493 488 483 478 474 470 466 462 461 461 462 464 466 468 471
638 641 645 647 650 652 654 657 659 660 661 662 664 666 668 669 671 672 673 675 675 676 676 676 676 675 675 675 674 672 670 668 666 665 663 661 659 656 653 649 646 643 639 636 632 628 624 620 615 611 606 601 596 590 584 579 576 573 567 562 558 553 547 541 534 527 521 514 508 501 496 491 486 481 477 473 468 465 463 462 463 465 467 470 472
637 640 644 647 649 651 653 655 657 658 659 661 663 664 666 668 670 671 672 673 674 674 674 675 674 674 674 674 673 671 669 667 665 665 663 661 659 656 653 650 647 643 640 637 633 629 625 621 616 612 607 602 597 591 586 581 579 576 572 567 562 558 551 545 538 530 523 516 510 504 498 493 488 483 479 476 471 468 465 464 464 466 468 470 472
637 640 644 646 649 651 653 655 656 656 658 660 661 663 666 668 669 670 671 672 672 673 674 674 673 673 673 673 672 670 668 667 665 664 663 661 659 656 653 650 647 643 640 638 634 631 627 623 618 613 609 604 599 594 589 585 583 580 576 571 567 561 554 547 540 532 524 517 512 506 500 495 489 485 481 478 474 471 469 467 466 466 467 469 471
637 641 644 647 649 651 653 654 654 655 657 659 661 663 665 667 668 669 670 670 671 672 672 672 673 673 673 672 672 670 668 666 666 664 663 661 658 656 653 650 647 644 641 638 635 632 628 624 620 615 611 606 601 597 592 589 587 584 580 575 569 563 555 548 541 534 527 520 515 509 503 498 493 488 485 481 478 476 473 470 468 467 467 468 470